User: anonymous   Login
Location: Luz Observatory
(34.5000°N, 117.2833°W)
Time: 09:03:49
(UTC-07:00)
Language:

Okean 3 Rocket - Orbit

View from above orbital plane
View from above orbital plane
View from above satellite
View from above satellite

Ground track
Ground track

The orbit data is extracted from the following two-line orbital elements,

1 21398U 91039B   16151.72489610  .00000086  00000-0  83392-5 0  9990
2 21398  82.5241 222.1903 0021406   0.5862 116.9548 14.79607197347357
Epoch (UTC): 30 May 2016 17:23:51
Eccentricity: 0.0021406
inclination: 82.5241°
perigee height: 615 km
apogee height: 645 km
right ascension of ascending node: 222.1903°
argument of perigee: 0.5862°
revolutions per day: 14.79607197
mean anomaly at epoch: 116.9548°
orbit number at epoch: 34735

The dashed part of the orbit path shows where the satellite is in the earth's shadow,  

DLR